星链-35716(STARLINK-35716)

导读

STARLINK-35716是美国SpaceX星链星座中的一颗卫星,于2025年12月17日发射入轨。星链计划旨在构建全球卫星互联网星座,为全球偏远地区、海洋空域等场景提供低成本高速宽带服务,这颗卫星加入星座后,进一步扩充了星链低轨卫星网络的容量,延续了SpaceX部署星链星座的节奏。

基本信息
目录编号:
67191
目录名称:
STARLINK-35716
国际标识:
2025-303AE
轨道中心:
EARTH
卫星名称:
星链-35716
卫星全名:
星链-35716(STARLINK-35716)
卫星状态:
在轨 (已飞行178 天)
发射日期:
2025-12-17 UTC
国别 :
美国 (US)
星等 :
--
轨道信息
数据来源 国际轨道数据 AOE轨道数据
星历时间 2026-06-12T12:41:20+0800
1天前
查看轨道信息
2026-06-13T00:00:00+0800
13小时前
查看轨道信息
半长轴 6861.097km 6861.183km
偏心率 0.0001374 0.0001505
轨道倾角 43.003° 43.001°
近地点辐角 272.595° 268.782°
升交点赤经 137.417° 134.755°
平近点角 87.474° 166.142°
近地点 482.017km 482.013km
远地点 483.903km 484.079km
周期 94.265分钟 94.267分钟
每日圈数 15.276099 15.275813
详细信息
固有亮度:
5
最大亮度:
2.5
卫星平台:
Starlink V1.0
覆盖范围:
全球
运营商:
太空探索技术公司
运营商所在国:
美国
制造商(研发单位):
太空探索技术公司
制造商所在国:
美国
使用方式:
暂无
卫星简介
Starlink 计划是 SpaceX 推出的全球卫星互联网项目,通过发射低轨道卫星,为全球尤其是偏远地区提供高速、低延迟的互联网服务。自 2019 年起,Starlink 已部署数千颗卫星,旨在缩小全球数字鸿沟,推动互联网普及。该项目还为军事、航空等行业提供通信支持,带来广泛经济效益。
2D轨道图
3D轨道图
轨道高度分析图
轨道倾角分析图
轨道综合分析图
查看轨道综合分析图